{"data":{"norad_id":62747,"epoch":"2026-09-21T01:05:59.653248Z","epoch_age_seconds":124111,"freshness":"FRESH","line1":"1 62747U 25014N   26264.04582932  .00013362  00000+0  49401-3 0  9996","line2":"2 62747  43.0016 131.1948 0001616 274.4347  85.6320 15.27593776 93136","mean_motion":15.27593776,"eccentricity":0.0001616,"inclination_deg":43.0016,"raan_deg":131.1948,"arg_perigee_deg":274.4347,"mean_anomaly_deg":85.632,"bstar":0.00049401,"rev_number":9313,"period_min":94.26589860628,"perigee_km":481.89908504264,"apogee_km":484.11660705688,"semimajor_km":6861.1448460498,"source":"CELESTRAK","updated_at":"2026-09-22T09:00:49.658373Z"}}